THORAD DELTA 1 DEB, 42614

Orbit data source: Space-Track

THORAD DELTA 1 DEB, 42614 is space debris in SSO originally from a launch on Fri, 15 Nov 1974 UTC launched from the Air Force Western Test Range (AFWTR). Debris objects in space refer to the collection of defunct objects orbiting the Earth. Examples of debris include non-operational satellites, rocket bodies, and fragments generated from explosions, collisions, or faulty payload assembly.

Loading next visibility...
Identifier
42614, 1974-089GF
Orbit
SSO
Last TLE update
1 day ago
Origin
Manufacturer
Unknown
Mission
Spacecraft
Bus & Motor
Unknown
Mass
Unknown
Launch date (UTC)
1974-11-15 (51 years ago)
Launch vehicle
Unknown
Launch site
Air Force Western Test Range (AFWTR)
Object type
Payload
Rocket body
Debris
Shape & HBR
Unknown
Radar Cross Section
Small (<0.1 m²)

Expand to show TLE details & history

TLE from 1 day ago
0 THORAD DELTA 1 DEB
1 42614U 74089GF  25182.19822582  .00000331  00000-0  21765-2 0  9990
2 42614 101.8556 333.2059 0041068 131.9484  46.0012 12.59584001491786
Epoch: 2025-07-01T04:45Z
TLE epoch observation values (Epoch: 2025-07-01T04:45:26.71Z)
Latitude
1.57772°
Longitude
162.67713°
Altitude
1,404.858 km
Speed
7.168 km/s
True Right ascension
10h 14m 08s
True Declination
1° 34' 09"
Sunlit
Object was in daylight at epoch
Visualization orbit readout
Latitude
-18.60439°
Longitude
-12.62154°
Altitude
1,458.889 km
Speed
7.12 km/s
Apparent Right ascension
00h 39m 47s
Apparent Declination
-35° 15' 22"
Sunlit
Object is in full shadow
Visualization observer readout
Local Sidereal Time
16:11:15
Azimuth
100.99° ESE
Elevation
-48.458°
Doppler factor
1
Orbital elements
Apogee altitude
1,454.237 km
Perigee altitude
1,390.168 km
Semi-major axis
7,800.339 km
Eccentricity
0.00411
Inclination
101.8556°
RAAN
333.2059°
Arg. of periapsis
131.9484°
True anomaly
Unknown
Mean anomaly
46.0012°
Eccentric anomaly
Unknown
Mean motion
3.15045 °/min
Orbital period
114.27 mins
BSTAR
0.0021765
Loading maneuver chart data...
Loading SW <> Apogee altitude chart data...

THORAD DELTA 1 DEB Visibility forecast

Observer location: undefined°, undefined°

Span
Click to sort rows by Start time (UTC) header in descending order
Start Az.
Max El. time (UTC)
Max El. Az.
Max El.
End time (UTC)
End Az.
13 mins2025-07-02 08:32:50.907Z117.517° SE2025-07-02 08:39:50.907Z55.259° ENE28.984°2025-07-02 08:45:50.907Z1.943° NNE
14 mins2025-07-02 10:24:50.907Z183.157° SSW2025-07-02 10:31:50.907Z268.263° W39.45°2025-07-02 10:38:50.907Z333.008° NNW
13 mins2025-07-02 22:23:50.907Z33.412° NE2025-07-02 22:29:50.907Z98.868° ESE36.722°2025-07-02 22:36:50.907Z172.319° S
12 mins2025-07-03 00:16:50.907Z354.479° N2025-07-03 00:21:50.907Z301.784° NW31.379°2025-07-03 00:28:50.907Z237.246° WSW
|